Location: Domicella
(40.8833°N, 14.5833°E)
Time: 12:33:22
(UTC+00:00)

Cosmos 2098 Rocket - Pass Details

Date: 15 May 2026
Orbit: 346 x 838 km, 82.9° (Epoch: 8 June)

Event Time Altitude Azimuth Distance (km) Brightness Sun altitude
Exits shadow 20:52:46 37° 221° (SW) 1,042 4.0 -23.4°
Maximum altitude 20:54:19 56° 278° (W) 781 3.7 -23.6°
Drops below altitude 10° 20:58:32 10° 358° (N) 1,919 6.4 -24.0°
Sets 21:00:37 0° 3° (N) 2,741 7.3 -24.2°
